"Pseudo-MPEC" for P21MJpQ

Created 2023 Nov 24 15:22:13 UT using Find_Orb

Click here for an explanation of pseudo-MPECs

 
 Astrometry: 
     P21MJpQ* C2023 10 23^1ZyP+Hiu=!AstrometryDredacted;dJQtMpNY$@egjoV^0/CuCF52
     P21MJpQ  C2023 10 23vKOE;$pclickH@S9[pA:t;Y;,NKj^[g3$d_here-c2%J4+jB`]#VF52
     P21MJpQ  C2023 10 23%=+@w%Kda8w?V6'?jmx:[*_#jB!xfor_Bu:HT@M[fpTv`[pQNnk0F52
     P21MJpQ  C2023 10 23R*3vMnwNl6JA*MuJn_@:=$u3U$[!44explanation+!02oa;aRe(F52
     P21MJpQ  C2023 10 23\8XamLF3j:*n6q$:SY(g)QQSmlnE1w[$/vq[w*%7iM'`Qu9d#Z)aF52
     P21MJpQ 1C2023 11 02.26167323 43 24.499+33 15 24.80   ~B26q 20.91GVNEOCPG96
     P21MJpQ 1C2023 11 02.26688023 43 24.359+33 15 22.50   ~B26q 21.57GVNEOCPG96
     P21MJpQ 1C2023 11 02.27205823 43 24.157+33 15 19.66   ~B26q 21.13GVNEOCPG96

Station data:
(F52) Pan-STARRS 2, Haleakala  (N20.707382 W156.255910)  US/Hawaii.
   Observers J. Bulger, T. Dukes, T. Lowe, A. Schultz, M. Willman. Measurers
   K. Chambers, S. Chastel, T. de Boer, L. Denneau, J. Fairlamb, H.
   Flewelling, M. Huber, C.-C. Lin, E. Magnier, Y. Ramanjooloo, R. Wainscoat,
   R. Weryk. 1.8-m Ritchey-Chrétien + CCD.
(G96) Mt. Lemmon Survey  (N32.442751 W110.788720)  US/Arizona.  Observer E.
   J. Christensen. 1.5-m reflector + 10K CCD.

Orbital elements:  P21MJpQ
   Perihelion 2023 Apr 16.57591 +/- 7.09 TT = 13:49:18 (JD 2460051.07591)
Epoch 2023 Nov  2.0 TT = JDT 2460250.5   Earth MOID: 0.3712   Ma: 0.0682
M  54.12755738 +/- 6                (J2000 ecliptic)             AutoNEOCP
n   0.27141935 +/- 0.0241           Peri.  290.29775 +/- 0.48
a   2.36252009 +/- 0.14             Node   343.74713 +/- 1.2
e   0.5011364 +/- 0.0456            Incl.   28.10255 +/- 0.9
P   3.63                   H 19.16  G  0.15   U 10.2
q 1.17857517 +/- 0.0382    Q 3.54646502 +/- 0.317
From 8 observations 2023 Oct. 23-Nov. 2; mean residual 0".38
Residuals in arcseconds: 
231023 F52  .12-  .19-    231023 F52  .02+  .19+    231102 G96  .27+  .18+    
231023 F52  .02+  .00     231023 F52  .04-  .25-    231102 G96  .83+  .24-    
231023 F52  .12+  .25+    231102 G96  1.1-  .05+    

Ephemerides (geocentric):
Date (UTC) HH   RA             Dec           delta  r     elong  mag " sig PA
---- --------  ------------   ------------  ------ ------ -----  --- --------
2023 11 24 15  23 37 49.160   +30 40 34.43  1.6731 2.3413 121.1 23.2  144 122
2023 11 24 16  23 37 49.652   +30 40 20.53  1.6737 2.3416 121.1 23.2  144 122
2023 11 24 17  23 37 50.147   +30 40 06.64  1.6744 2.3418 121.1 23.2  145 121
2023 11 24 18  23 37 50.646   +30 39 52.77  1.6750 2.3420 121.0 23.2  145 121
2023 11 24 19  23 37 51.148   +30 39 38.92  1.6756 2.3423 121.0 23.2  146 121
2023 11 24 20  23 37 51.654   +30 39 25.08  1.6762 2.3425 121.0 23.2  146 121
2023 11 24 21  23 37 52.163   +30 39 11.26  1.6769 2.3427 120.9 23.2  147 121
2023 11 24 22  23 37 52.676   +30 38 57.46  1.6775 2.3430 120.9 23.2  147 121
2023 11 24 23  23 37 53.192   +30 38 43.67  1.6781 2.3432 120.9 23.2  148 121
2023 11 25 00  23 37 53.712   +30 38 29.90  1.6788 2.3434 120.8 23.2  148 121
2023 11 25 01  23 37 54.235   +30 38 16.15  1.6794 2.3437 120.8 23.2  149 121
2023 11 25 02  23 37 54.762   +30 38 02.41  1.6800 2.3439 120.8 23.2  149 121
2023 11 25 03  23 37 55.292   +30 37 48.69  1.6807 2.3442 120.7 23.2  150 121
2023 11 25 04  23 37 55.826   +30 37 34.98  1.6813 2.3444 120.7 23.2  150 121
2023 11 25 05  23 37 56.363   +30 37 21.30  1.6819 2.3446 120.7 23.2  150 121
2023 11 25 06  23 37 56.904   +30 37 07.63  1.6826 2.3449 120.6 23.2  151 121
2023 11 25 07  23 37 57.448   +30 36 53.97  1.6832 2.3451 120.6 23.2  151 121
2023 11 25 08  23 37 57.996   +30 36 40.33  1.6838 2.3453 120.6 23.2  152 121
2023 11 25 09  23 37 58.547   +30 36 26.71  1.6845 2.3456 120.5 23.2  152 121
2023 11 25 10  23 37 59.102   +30 36 13.11  1.6851 2.3458 120.5 23.2  153 121
2023 11 25 11  23 37 59.660   +30 35 59.52  1.6857 2.3460 120.5 23.2  153 121
2023 11 25 12  23 38 00.221   +30 35 45.95  1.6864 2.3463 120.4 23.2  154 121
2023 11 25 13  23 38 00.787   +30 35 32.40  1.6870 2.3465 120.4 23.2  154 121
2023 11 25 14  23 38 01.355   +30 35 18.86  1.6877 2.3467 120.4 23.2  155 121
2023 11 25 15  23 38 01.927   +30 35 05.34  1.6883 2.3470 120.3 23.2  155 121
2023 11 25 16  23 38 02.503   +30 34 51.84  1.6889 2.3472 120.3 23.2  156 121
2023 11 25 17  23 38 03.081   +30 34 38.35  1.6896 2.3475 120.3 23.2  156 120
2023 11 25 18  23 38 03.664   +30 34 24.88  1.6902 2.3477 120.2 23.2  157 120
2023 11 25 19  23 38 04.250   +30 34 11.43  1.6908 2.3479 120.2 23.2  157 120
2023 11 25 20  23 38 04.839   +30 33 57.99  1.6915 2.3482 120.2 23.2  158 120
2023 11 25 21  23 38 05.432   +30 33 44.57  1.6921 2.3484 120.1 23.2  158 120
2023 11 25 22  23 38 06.028   +30 33 31.17  1.6927 2.3486 120.1 23.2  159 120
2023 11 25 23  23 38 06.627   +30 33 17.78  1.6934 2.3489 120.1 23.2  159 120
2023 11 26 00  23 38 07.230   +30 33 04.41  1.6940 2.3491 120.0 23.2  159 120
2023 11 26 01  23 38 07.837   +30 32 51.06  1.6946 2.3493 120.0 23.2  160 120
2023 11 26 02  23 38 08.447   +30 32 37.72  1.6953 2.3496 120.0 23.2  160 120
2023 11 26 03  23 38 09.060   +30 32 24.40  1.6959 2.3498 119.9 23.2  161 120
2023 11 26 04  23 38 09.677   +30 32 11.10  1.6966 2.3500 119.9 23.2  161 120
2023 11 26 05  23 38 10.297   +30 31 57.82  1.6972 2.3503 119.9 23.2  162 120
2023 11 26 06  23 38 10.920   +30 31 44.55  1.6978 2.3505 119.8 23.2  162 120
2023 11 26 07  23 38 11.547   +30 31 31.30  1.6985 2.3507 119.8 23.2  163 120
2023 11 26 08  23 38 12.177   +30 31 18.06  1.6991 2.3510 119.8 23.2  163 120
2023 11 26 09  23 38 12.811   +30 31 04.84  1.6998 2.3512 119.7 23.2  164 120
2023 11 26 10  23 38 13.448   +30 30 51.64  1.7004 2.3514 119.7 23.2  164 120
2023 11 26 11  23 38 14.089   +30 30 38.46  1.7010 2.3517 119.7 23.2  165 120
2023 11 26 12  23 38 14.733   +30 30 25.29  1.7017 2.3519 119.7 23.2  165 120
2023 11 26 13  23 38 15.380   +30 30 12.14  1.7023 2.3521 119.6 23.2  166 120
2023 11 26 14  23 38 16.030   +30 29 59.01  1.7030 2.3524 119.6 23.2  166 120